Flag for Montenegro Weather past 2 weeks in Podgorica, Montenegro

Now
64 °F

Light rain. Passing clouds.


Feels Like: 64 °F
Forecast: 64 / 83 °F
Wind: 3 mph from North

Location: Podgorica Titograd

Current Time: Sep 20, 2014 at 8:46:11 PM

Latest Report: Sep 20, 2014 at 8:00 PM


Visibility: 6 mi

Pressure: 30.07 "Hg

Humidity: 100%

Dew point: 64 °F

Location of PodgoricaLocation

Historic Weather in Podgorica — Graph

°F

Podgorica temperature yesterday

Maximum temperature yesterday: 81 °F (at 2:00 PM)
Minimum temperature yesterday: 61 °F (at 4:30 AM)
Average temperature yesterday: 70 °F

Past Weeks' High & Low Weather Summary

 TemperatureHumidityPressure
High86 °F (Sep 7, 3:30 PM)100% (Sep 6, 2:00 AM)30.18 "Hg (Sep 6, 2:00 AM)
Low57 °F (Sep 15, 5:00 AM)37% (Sep 9, 4:30 PM)29.74 "Hg (Sep 6, 1:00 PM)
Average70 °F76%29.94 "Hg
* Reported Sep 5 3:00 PM — Sep 20 3:30 PM, Podgorica, Weather by CustomWeather, © 2014

Note: Actual official high and low records may vary slightly from our data, if they occured in-between our weather recording intervals... More about our weather records

Advertising

Podgorica weather history for previous 24 hours

 ConditionsComfort  
Time TempWeatherWind HumidityBarometerVisibility
3:30 PM
Sep 20
68 °FLight rain. Mostly cloudy.1 mph88%30.09 "HgN/A
3:00 PM68 °FLight rain. Mostly cloudy.2 mph88%30.09 "HgN/A
2:30 PM70 °FLight rain. Mostly cloudy.3 mph83%30.09 "HgN/A
2:00 PM70 °FLight rain. Mostly cloudy.3 mph83%30.09 "HgN/A
1:30 PM70 °FLight rain. Mostly cloudy.6 mph83%30.09 "HgN/A
1:00 PM73 °FLight rain. Mostly cloudy.6 mph69%30.12 "HgN/A
12:30 PM73 °FLight rain. Mostly cloudy.6 mph65%30.12 "HgN/A
12:00 PM75 °FMore clouds than sun.6 mph57%30.09 "HgN/A
11:30 AM75 °FMore clouds than sun.2 mph54%30.09 "HgN/A
11:00 AM75 °FMore clouds than sun.2 mph54%30.12 "HgN/A
10:30 AM73 °FBroken clouds.2 mph57%30.12 "HgN/A
10:00 AM73 °FScattered clouds.5 mph61%30.12 "HgN/A
9:30 AM72 °FMore clouds than sun.3 mph65%30.12 "HgN/A
9:00 AM70 °FMostly cloudy.3 mph69%30.12 "HgN/A
8:30 AM68 °FMostly cloudy.No wind78%30.15 "HgN/A
8:00 AM68 °FMostly cloudy.2 mph78%30.15 "HgN/A
7:30 AM66 °FMostly cloudy.1 mph83%30.15 "HgN/A
7:00 AM66 °FMostly cloudy.1 mph83%30.15 "HgN/A
6:30 AM68 °FPartly cloudy.2 mph78%30.15 "HgN/A
6:00 AM68 °FPartly cloudy.1 mph73%30.15 "HgN/A
5:30 AM68 °FPartly cloudy.1 mph69%30.15 "HgN/A
5:00 AM68 °FPartly cloudy.2 mph69%30.15 "HgN/A
4:30 AM68 °FPartly cloudy.2 mph73%30.15 "HgN/A
4:00 AM68 °FPartly cloudy.5 mph73%30.15 "HgN/A
3:00 AM68 °FPartly cloudy.6 mph73%30.15 "HgN/A
2:30 AM68 °FPassing clouds.6 mph73%30.15 "HgN/A
2:00 AM66 °FPassing clouds.3 mph83%30.15 "HgN/A
1:30 AM66 °FPassing clouds.3 mph83%30.15 "HgN/A
1:00 AM68 °FPassing clouds.5 mph78%30.15 "HgN/A
12:30 AM68 °FPassing clouds.7 mph78%30.18 "HgN/A
12:00 AM68 °FPassing clouds.5 mph78%30.18 "HgN/A
11:30 PM
Sep 19
68 °FPassing clouds.5 mph78%30.15 "HgN/A
11:00 PM68 °FPassing clouds.5 mph83%30.15 "HgN/A
10:30 PM68 °FPassing clouds.5 mph78%30.15 "HgN/A
10:00 PM66 °FPassing clouds.3 mph83%30.15 "HgN/A
9:30 PM70 °FPassing clouds.2 mph73%30.15 "HgN/A
9:00 PM70 °FPassing clouds.2 mph69%30.15 "HgN/A
8:30 PM72 °FPassing clouds.1 mph69%30.15 "HgN/A
8:00 PM73 °FPassing clouds.1 mph65%30.15 "HgN/A
Weather by CustomWeather, © 2014

See weather overviewHow to use our weather pages